Content
SEND FEEDBACK

Daily
Averages
Monthly
Summary
United States of America

TELLURIDE, COLORADO


Home > North America > United States > Colorado
Elevation: 9813 feet     Latitude: 37 57N     Longitude: 107 49W

WEATHER
 
SELECT A DAY
Number of Records: 299,712;   Date Range: 1/1/95 - 8/28/14
 
SHARE

PRINT THIS DATA

[ ← Previous Day ]
WEATHER ALMANAC - SEPTEMBER 18, 2013
[ Next Day → ]
[ °C ]   °F
Weather ElementAverageHighLow
Temperature54.9 °F64.4 °F (12:35 pm)48.2 °F (5:15 pm)
Dewpoint43.1 °F46.4 °F (6:15 am)35.6 °F (12:35 pm)
Humidity66.5 %93 % (6:15 pm)34 % (12:35 pm)
Barometer30.22 in30.26 in (9:15 am)30.19 in (2:15 pm)
Wind Speed4.6 mph16.1 mph (1:15 pm)
Wind Gust27.6 mph (12:55 am)
Weather ElementAverage
Visibility9.8 mi
Wind DirectionESE (109.9 °)

Weather ElementTotal
Precipitation0.11 in
Heating Degree Days8.7 (Base 65)
Growing Degree Days6.3 (Base 50)
Averaged from 71 records on September 18, 2013
WEATHER CONDITIONS BREAKOUT
WIND DIRECTION BREAKOUT
WEATHER BY HOUR - SEPTEMBER 18, 2013
[ °C ]   °F
Local TimeTemperatureDewpointHumidityBarometerVisibilityWind DirectionWind SpeedGust SpeedPrecipitationEventsConditions
12:35 AM55.4 °F44.6 °F67 %30.21 in10.0 miEast (100°)6.9 mphThunderstormThunderstorm
12:55 AM57.2 °F44.6 °F63 %30.22 in10.0 miESE (120°)10.4 mph27.6 mphThunderstormMostly Cloudy
1:15 AM55.4 °F44.6 °F67 %30.21 in10.0 miESE (110°)11.5 mph18.4 mphThunderstormThunderstorm
1:35 AM57.2 °F44.6 °F63 %30.22 in10.0 miCalmRain-ThunderstormLight Thunderstorms and Rain
1:55 AM57.2 °F44.6 °F63 %30.22 in10.0 miCalmThunderstormOvercast
2:15 AM55.4 °F44.6 °F67 %30.22 in10.0 miCalmThunderstormThunderstorm
2:35 AM55.4 °F44.6 °F67 %30.22 in10.0 miCalmThunderstormMostly Cloudy
2:55 AM55.4 °F44.6 °F67 %30.22 in10.0 miCalmThunderstormThunderstorm
3:15 AM55.4 °F44.6 °F67 %30.22 in10.0 miCalmThunderstormMostly Cloudy
3:35 AM55.4 °F44.6 °F67 %30.22 in10.0 miCalmThunderstormScattered Clouds
3:55 AM55.4 °F44.6 °F67 %30.22 in10.0 miCalmThunderstormScattered Clouds
4:15 AM55.4 °F44.6 °F67 %30.22 in10.0 miCalmThunderstormScattered Clouds
4:35 AM55.4 °F44.6 °F67 %30.21 in10.0 miSSE (160°)4.6 mphThunderstormMostly Cloudy
4:55 AM55.4 °F44.6 °F67 %30.21 in10.0 miSSW (200°)3.5 mphRain-ThunderstormLight Thunderstorms and Rain
5:15 AM55.4 °F44.6 °F67 %30.22 in10.0 miSSW (200°)4.6 mphRain-ThunderstormLight Thunderstorms and Rain
5:35 AM55.4 °F44.6 °F67 %30.22 in10.0 miSSE (160°)3.5 mphThunderstormThunderstorm
5:55 AM53.6 °F44.6 °F72 %30.22 in10.0 miCalmThunderstormThunderstorm
6:15 AM51.8 °F46.4 °F82 %30.23 in10.0 miSSW (210°)4.6 mphScattered Clouds
6:35 AM53.6 °F44.6 °F72 %30.23 in10.0 miCalmMostly Cloudy
6:55 AM53.6 °F46.4 °F77 %30.24 in10.0 miCalmMostly Cloudy
7:15 AM53.6 °F44.6 °F72 %30.24 in10.0 miCalmScattered Clouds
7:35 AM53.6 °F44.6 °F72 %30.24 in10.0 miSW (220°)5.8 mphScattered Clouds
7:55 AM53.6 °F44.6 °F72 %30.25 in10.0 miCalmThunderstormMostly Cloudy
8:15 AM55.4 °F44.6 °F67 %30.24 in10.0 miCalmOvercast
8:35 AM55.4 °F44.6 °F67 %30.24 in10.0 miWest (260°)6.9 mphThunderstormMostly Cloudy
8:55 AM55.4 °F44.6 °F67 %30.25 in10.0 miSW (220°)3.5 mphThunderstormScattered Clouds
9:15 AM55.4 °F44.6 °F67 %30.26 in10.0 miSSE (150°)3.5 mphScattered Clouds
9:35 AM59.0 °F44.6 °F59 %30.26 in10.0 miSE (140°)5.8 mphScattered Clouds
9:55 AM59.0 °F44.6 °F59 %30.26 in10.0 miSSE (150°)3.5 mphThunderstormThunderstorm
10:15 AM60.8 °F46.4 °F59 %30.26 in10.0 miCalmScattered Clouds
10:35 AM60.8 °F37.4 °F42 %30.26 in10.0 miSW (230°)8.1 mphScattered Clouds
10:55 AM60.8 °F39.2 °F45 %30.25 in10.0 miWSW (250°)9.2 mphMostly Cloudy
11:15 AM60.8 °F39.2 °F45 %30.25 in10.0 miCalmThunderstormMostly Cloudy
11:35 AM62.6 °F39.2 °F42 %30.25 in10.0 miSW (230°)9.2 mphThunderstormMostly Cloudy
11:55 AM62.6 °F37.4 °F39 %30.24 in10.0 miSSW (210°)12.7 mph18.4 mphMostly Cloudy
12:15 PM62.6 °F37.4 °F39 %30.22 in10.0 miSW (220°)9.2 mph16.1 mphScattered Clouds
12:35 PM64.4 °F35.6 °F34 %30.22 in10.0 miWest (260°)13.8 mph18.4 mphMostly Cloudy
12:55 PM62.6 °F37.4 °F39 %30.22 in10.0 miSouth (190°)5.8 mph19.6 mphThunderstormOvercast
1:15 PM62.6 °F35.6 °F37 %30.21 in10.0 miSW (220°)16.1 mph27.6 mphOvercast
1:35 PM62.6 °F35.6 °F37 %30.21 in10.0 miCalmThunderstormMostly Cloudy
1:55 PM62.6 °F35.6 °F37 %30.20 in10.0 miESE (120°)9.2 mphOvercast
2:15 PM62.6 °F37.4 °F39 %30.19 in10.0 miENE (70°)3.5 mphOvercast
2:35 PM62.6 °F37.4 °F39 %30.19 in10.0 miWNW (300°)6.9 mphThunderstormThunderstorm
2:55 PM59.0 °F42.8 °F55 %30.19 in10.0 miWSW (240°)8.1 mphOvercast
3:15 PM57.2 °F42.8 °F59 %30.20 in10.0 miWest (280°)9.2 mph23.0 mphMostly Cloudy
3:35 PM57.2 °F37.4 °F48 %30.20 in10.0 miWNW (290°)5.8 mph18.4 mphRainRain
3:55 PM53.6 °F39.2 °F58 %30.24 in10.0 miWest (280°)11.5 mph25.3 mphRain-ThunderstormLight Thunderstorms and Rain
4:15 PM51.8 °F42.8 °F71 %30.24 in7.0 miCalm0.01 inRain-ThunderstormLight Thunderstorms and Rain
4:35 PM50.0 °F44.6 °F82 %30.24 in10.0 miESE (120°)8.1 mph16.1 mph0.01 inRain-ThunderstormLight Thunderstorms and Rain
4:55 PM50.0 °F42.8 °F76 %30.23 in10.0 miEast (80°)6.9 mph0.01 inRain-ThunderstormLight Thunderstorms and Rain
5:15 PM48.2 °F44.6 °F87 %30.21 in10.0 miEast (100°)10.4 mph17.3 mphThunderstorm
5:35 PM48.2 °F44.6 °F87 %30.19 in10.0 miEast (80°)5.8 mphThunderstormThunderstorm
5:55 PM48.2 °F44.6 °F87 %30.22 in5.0 miENE (70°)3.5 mph0.01 inRain-ThunderstormLight Thunderstorms and Rain
6:15 PM48.2 °F46.4 °F93 %30.20 in7.0 miCalm0.01 inRainLight Rain
6:35 PM50.0 °F44.6 °F82 %30.20 in10.0 miESE (110°)10.4 mph0.01 inThunderstormMostly Cloudy
6:55 PM50.0 °F44.6 °F82 %30.20 in10.0 miCalm0.01 inThunderstormOvercast
7:15 PM50.0 °F46.4 °F87 %30.20 in10.0 miESE (110°)8.1 mphThunderstormOvercast
7:35 PM50.0 °F44.6 °F82 %30.19 in10.0 miEast (90°)3.5 mphThunderstormThunderstorm
7:55 PM50.0 °F44.6 °F82 %30.20 in10.0 miEast (100°)4.6 mphScattered Clouds
8:15 PM50.0 °F46.4 °F87 %30.20 in10.0 miSE (140°)6.9 mphThunderstormThunderstorm
8:35 PM50.0 °F46.4 °F87 %30.20 in10.0 miESE (120°)4.6 mphThunderstormThunderstorm
8:55 PM50.0 °F46.4 °F87 %30.21 in10.0 miCalmRain-ThunderstormLight Thunderstorms and Rain
9:15 PM48.2 °F46.4 °F93 %30.25 in10.0 miSW (230°)3.5 mphRain-ThunderstormLight Thunderstorms and Rain
9:35 PM50.0 °F44.6 °F82 %30.22 in10.0 miNE (40°)3.5 mph0.02 inRain-ThunderstormLight Thunderstorms and Rain
9:55 PM51.8 °F42.8 °F71 %30.24 in10.0 miEast (90°)5.8 mph0.02 inThunderstormThunderstorm
10:15 PM50.0 °F42.8 °F76 %30.23 in10.0 miCalmThunderstormThunderstorm
10:35 PM50.0 °F44.6 °F82 %30.23 in10.0 miESE (120°)10.4 mphThunderstormThunderstorm
10:55 PM51.8 °F41.0 °F67 %30.23 in10.0 miSSE (160°)4.6 mphThunderstormMostly Cloudy
11:15 PM50.0 °F44.6 °F82 %30.23 in10.0 miCalmThunderstormOvercast
11:35 PM50.0 °F42.8 °F76 %30.23 in10.0 miSE (140°)6.9 mphThunderstormMostly Cloudy
11:55 PM50.0 °F42.8 °F76 %30.22 in10.0 miESE (110°)4.6 mphOvercast
Hourly data recorded from KTEX, located miles away from Telluride, Colorado







STORIES FROM OUR PARTNERS